EA2MKR Weather Reports


time (UTC)temp
C
wind
direction
speed
KPH
gust
KPH
rain 1hr
cm
rain 24hr
cm
rain mn
cm
humidity
%
barometer
mb
20260506164421 13 114 3.2 17.7 0.00 0.00 0.00 68 949.9
20260506164324 13 118 6.4 17.7 0.00 0.00 0.00 69 949.9
20260506164032 13 97 3.2 17.7 0.00 0.00 0.00 69 949.8
20260506163421 13 141 1.6 17.7 0.00 0.00 0.00 71 949.8
20260506163325 13 214 4.8 17.7 0.00 0.00 0.00 71 949.9
20260506162921 13 86 4.8 16.1 0.00 0.00 0.00 72 949.8
20260506162823 13 76 3.2 14.5 0.00 0.00 0.00 71 949.8
20260506162421 13 200 0.0 9.7 0.00 0.00 0.00 73 949.8
20260506162324 13 117 1.6 11.3 0.00 0.00 0.00 73 949.9
20260506161921 13 107 1.6 11.3 0.00 0.00 0.00 73 949.9
20260506161823 12 147 1.6 11.3 0.00 0.00 0.00 72 949.9
20260506161421 13 125 8.0 11.3 0.00 0.00 0.00 74 949.9
20260506161323 12 86 8.0 11.3 0.00 0.00 0.00 74 949.9
20260506160921 12 133 1.6 16.1 0.00 0.00 0.00 73 950.0
20260506160823 12 158 3.2 16.1 0.00 0.00 0.00 73 950.0
20260506160420 12 94 3.2 22.5 0.00 0.00 0.00 73 950.0
20260506160323 12 121 3.2 22.5 0.00 0.00 0.00 72 950.0
20260506160031 13 111 11.3 22.5 0.00 0.00 0.00 73 949.9
20260506155420 12 107 3.2 20.9 0.00 0.00 0.00 76 950.0
20260506155323 12 76 4.8 20.9 0.00 0.00 0.00 77 950.0
20260506154921 12 102 11.3 20.9 0.00 0.00 0.00 76 950.1
20260506154823 12 116 14.5 20.9 0.00 0.00 0.00 77 950.0
20260506154421 12 140 8.0 19.3 0.00 0.00 0.00 78 950.1
20260506154322 12 135 9.7 19.3 0.00 0.00 0.00 78 950.1
20260506153920 12 110 8.0 16.1 0.00 0.00 0.00 82 950.1
20260506153822 12 149 8.0 16.1 0.00 0.00 0.00 81 950.2
20260506153420 12 79 3.2 9.7 0.00 0.00 0.00 82 950.2
20260506153323 12 123 0.0 9.7 0.00 0.00 0.00 82 950.3
20260506152920 11 116 3.2 9.7 0.00 0.00 0.00 81 950.3
20260506152822 11 116 3.2 9.7 0.00 0.00 0.00 80 950.3
20260506152419 12 128 4.8 9.7 0.00 0.00 0.00 80 950.3
20260506152322 12 137 3.2 8.0 0.00 0.00 0.00 80 950.3
20260506151919 12 152 0.0 8.0 0.00 0.00 0.00 80 950.3
20260506151822 12 149 0.0 9.7 0.00 0.00 0.00 80 950.4
20260506151420 12 110 3.2 22.5 0.00 0.00 0.00 78 950.4
20260506151322 12 138 3.2 22.5 0.00 0.00 0.00 77 950.4
20260506150920 12 99 11.3 22.5 0.00 0.00 0.00 78 950.4
20260506150822 12 102 14.5 27.4 0.00 0.00 0.00 78 950.4
20260506150419 12 90 12.9 27.4 0.00 0.00 0.00 76 950.3
20260506150322 12 99 12.9 27.4 0.00 0.00 0.00 75 950.3
20260506145920 12 104 11.3 27.4 0.00 0.00 0.00 75 950.2
20260506145822 12 92 9.7 22.5 0.00 0.00 0.00 74 950.2
20260506145419 12 97 9.7 22.5 0.00 0.00 0.00 74 950.3
20260506145323 12 102 11.3 24.1 0.00 0.00 0.00 76 950.3
20260506144919 13 102 12.9 24.1 0.00 0.00 0.00 75 950.3
20260506144822 13 99 14.5 24.1 0.00 0.00 0.00 75 950.2
20260506144530 13 125 14.5 29.0 0.00 0.00 0.00 77 950.3
20260506143919 12 80 16.1 29.0 0.00 0.00 0.00 76 950.3
20260506143822 12 106 20.9 29.0 0.00 0.00 0.00 74 950.4
20260506143529 13 93 20.9 27.4 0.00 0.00 0.00 72 950.3
20260506143029 13 94 17.7 27.4 0.00 0.00 0.00 75 950.4
20260506142529 13 71 11.3 19.3 0.00 0.00 0.00 75 950.4
20260506141919 13 134 6.4 20.9 0.00 0.00 0.00 74 950.4
20260506141821 13 110 6.4 20.9 0.00 0.00 0.00 75 950.5
20260506141418 13 94 11.3 20.9 0.00 0.00 0.00 73 950.4
20260506141321 13 109 12.9 20.9 0.00 0.00 0.00 73 950.4
20260506140918 13 116 11.3 20.9 0.00 0.03 0.00 74 950.5
20260506140821 13 86 14.5 20.9 0.00 0.05 0.00 73 950.4
20260506140419 13 90 6.4 19.3 0.00 0.05 0.00 73 950.5
20260506140320 13 117 4.8 19.3 0.00 0.05 0.00 73 950.5
20260506135918 13 107 11.3 19.3 0.00 0.08 0.00 71 950.6
20260506135820 13 102 8.0 19.3 0.00 0.10 0.00 73 950.6
20260506135418 13 85 12.9 19.3 0.00 0.10 0.00 75 950.7
20260506135320 13 97 9.7 17.7 0.00 0.10 0.00 74 950.6
20260506134917 13 117 8.0 17.7 0.00 0.15 0.00 74 950.7
20260506134821 12 106 8.0 17.7 0.00 0.15 0.00 75 950.6
20260506134418 12 100 8.0 17.7 0.00 0.23 0.00 74 950.6
20260506134320 12 142 6.4 17.7 0.00 0.23 0.00 74 950.7
20260506133918 12 127 8.0 17.7 0.00 0.23 0.00 76 950.6
20260506133820 12 96 11.3 17.7 0.00 0.23 0.00 75 950.7
20260506133418 12 106 8.0 16.1 0.00 0.23 0.00 74 950.6
20260506133320 12 110 6.4 16.1 0.00 0.23 0.00 73 950.6
20260506132917 12 147 6.4 16.1 0.00 0.23 0.00 73 950.6
20260506132820 12 124 4.8 16.1 0.00 0.23 0.00 75 950.6
20260506132418 12 110 6.4 17.7 0.00 0.23 0.00 73 950.7
20260506132320 12 85 6.4 17.7 0.00 0.23 0.00 73 950.6
20260506132028 12 94 8.0 19.3 0.00 0.23 0.00 73 950.7
20260506131417 12 137 6.4 19.3 0.00 0.23 0.00 75 950.6
20260506131320 12 97 8.0 19.3 0.00 0.23 0.00 74 950.6
20260506130917 12 96 9.7 17.7 0.00 0.23 0.00 75 950.6
20260506130820 12 123 9.7 17.7 0.00 0.23 0.00 74 950.6
20260506130416 12 107 6.4 11.3 0.00 0.23 0.00 76 950.6
20260506130319 12 110 4.8 11.3 0.00 0.23 0.00 75 950.5
20260506125915 12 117 3.2 16.1 0.00 0.23 0.00 75 950.5
20260506125819 12 106 3.2 16.1 0.00 0.23 0.00 74 950.5
20260506125417 12 147 8.0 16.1 0.00 0.23 0.00 73 950.5
20260506125319 12 106 8.0 16.1 0.00 0.23 0.00 73 950.6
20260506124917 12 107 4.8 11.3 0.00 0.23 0.00 74 950.4
20260506124819 12 106 4.8 11.3 0.00 0.23 0.00 73 950.4
20260506124416 12 121 4.8 9.7 0.00 0.23 0.00 73 950.4
20260506124319 12 124 4.8 9.7 0.00 0.23 0.00 75 950.4
20260506123916 12 111 1.6 11.3 0.00 0.23 0.00 75 950.4
20260506123819 12 145 3.2 11.3 0.00 0.23 0.00 72 950.5
20260506123416 12 140 6.4 11.3 0.00 0.23 0.00 73 950.5
20260506123319 12 125 6.4 11.3 0.00 0.23 0.00 73 950.5
20260506122916 12 131 3.2 11.3 0.00 0.23 0.00 74 950.4
20260506122819 12 138 1.6 11.3 0.00 0.23 0.00 72 950.4
20260506122416 12 109 6.4 11.3 0.00 0.23 0.00 73 950.4
20260506122319 12 138 6.4 11.3 0.00 0.23 0.00 73 950.5
20260506121915 12 94 6.4 9.7 0.00 0.23 0.00 73 950.4
20260506121819 12 86 4.8 9.7 0.00 0.23 0.00 72 950.4
20260506121415 12 116 1.6 11.3 0.00 0.23 0.00 76 950.5
20260506121318 12 97 0.0 11.3 0.00 0.23 0.00 74 950.5
20260506121026 12 123 1.6 11.3 0.00 0.23 0.00 73 950.5
20260506120415 12 117 3.2 9.7 0.00 0.23 0.00 74 950.5
20260506120318 12 124 3.2 9.7 0.00 0.23 0.00 75 950.5
20260506115915 12 107 1.6 9.7 0.00 0.23 0.00 73 950.6
20260506115818 12 104 3.2 9.7 0.00 0.23 0.00 73 950.6
20260506115415 12 125 3.2 11.3 0.00 0.23 0.00 72 950.6
20260506115318 12 152 1.6 11.3 0.00 0.23 0.00 74 950.6
20260506115026 12 116 3.2 17.7 0.00 0.23 0.00 75 950.6
20260506114415 12 123 9.7 17.7 0.00 0.23 0.00 74 950.7
20260506114317 12 114 11.3 17.7 0.00 0.23 0.00 72 950.6
20260506113915 12 124 4.8 11.3 0.00 0.23 0.00 75 950.6
20260506113818 12 100 6.4 11.3 0.00 0.23 0.00 74 950.7
20260506113415 12 140 8.0 14.5 0.00 0.23 0.00 73 950.6
20260506113317 12 134 4.8 14.5 0.00 0.23 0.00 74 950.7
20260506112915 12 89 4.8 14.5 0.00 0.23 0.00 76 950.7
20260506112817 12 114 6.4 14.5 0.00 0.23 0.00 75 950.7
20260506112415 12 124 3.2 8.0 0.00 0.23 0.00 73 950.6
20260506112317 12 99 3.2 9.7 0.00 0.23 0.00 75 950.6
20260506111914 11 113 4.8 9.7 0.00 0.23 0.00 75 950.6
20260506111817 11 154 4.8 9.7 0.00 0.23 0.00 74 950.6
20260506111414 11 114 4.8 11.3 0.00 0.23 0.00 74 950.6
20260506111317 11 135 3.2 11.3 0.00 0.23 0.00 76 950.7
20260506110914 11 104 6.4 11.3 0.00 0.23 0.00 77 950.7
20260506110817 11 102 6.4 11.3 0.00 0.23 0.00 78 950.7
20260506110414 11 113 3.2 8.0 0.00 0.23 0.00 78 950.7
20260506110317 11 107 1.6 8.0 0.00 0.23 0.00 77 950.7
20260506110025 11 89 4.8 9.7 0.00 0.25 0.00 77 950.7
20260506105414 11 82 6.4 11.3 0.00 0.25 0.00 76 950.8
20260506105316 11 99 6.4 11.3 0.00 0.25 0.00 76 950.7
20260506104914 11 100 9.7 11.3 0.00 0.25 0.00 77 950.8
20260506104817 11 80 6.4 11.3 0.00 0.25 0.00 76 950.7
20260506104414 11 102 6.4 14.5 0.00 0.28 0.00 77 950.7
20260506104316 11 103 6.4 14.5 0.00 0.28 0.00 77 950.8
20260506103913 11 87 6.4 16.1 0.00 0.28 0.00 77 950.7
20260506103817 11 94 6.4 16.1 0.00 0.28 0.00 75 950.7
20260506103413 11 102 6.4 16.1 0.00 0.28 0.00 78 950.6
20260506103316 11 106 9.7 16.1 0.00 0.28 0.00 78 950.7
20260506102913 11 90 3.2 9.7 0.00 0.28 0.00 78 950.7
20260506102816 11 127 3.2 9.7 0.00 0.28 0.00 79 950.7
20260506102413 11 134 4.8 9.7 0.00 0.28 0.00 79 950.7
20260506102315 11 131 3.2 9.7 0.00 0.28 0.00 80 950.7
20260506101913 10 131 4.8 6.4 0.00 0.28 0.00 78 950.8
20260506101815 10 125 4.8 6.4 0.00 0.28 0.00 79 950.7
20260506101413 10 137 3.2 8.0 0.00 0.28 0.00 80 950.8
20260506101316 10 138 1.6 8.0 0.00 0.28 0.00 81 950.8
20260506100913 10 140 3.2 14.5 0.00 0.28 0.00 82 950.8
20260506100816 10 109 3.2 14.5 0.00 0.28 0.00 81 950.8
20260506100524 10 104 4.8 14.5 0.00 0.28 0.00 81 950.8
20260506095913 10 133 6.4 16.1 0.00 0.30 0.00 81 950.9
20260506095815 10 107 8.0 16.1 0.00 0.33 0.00 82 950.8
20260506095413 10 111 6.4 17.7 0.00 0.36 0.00 81 950.8
20260506095316 10 100 9.7 17.7 0.00 0.36 0.00 81 950.8
20260506094913 10 96 11.3 17.7 0.00 0.36 0.00 80 950.8
20260506094816 10 99 11.3 17.7 0.00 0.36 0.00 81 950.7
20260506094412 10 144 6.4 11.3 0.00 0.46 0.00 81 950.7
20260506094315 10 99 4.8 11.3 0.00 0.46 0.00 80 950.7
20260506093913 10 117 3.2 16.1 0.00 0.48 0.00 81 950.7
20260506093815 10 134 3.2 16.1 0.00 0.48 0.00 81 950.7
20260506093413 10 111 3.2 16.1 0.00 0.48 0.00 80 950.7
20260506093315 10 131 4.8 16.1 0.00 0.48 0.00 81 950.7
20260506092912 10 109 6.4 11.3 0.00 0.48 0.00 81 950.6
20260506092814 10 97 6.4 11.3 0.00 0.48 0.00 81 950.7
20260506092412 10 100 6.4 8.0 0.00 0.48 0.00 81 950.6
20260506092315 10 103 4.8 8.0 0.00 0.48 0.00 81 950.6
20260506091912 10 107 4.8 8.0 0.00 0.48 0.00 83 950.5
20260506091814 10 92 3.2 6.4 0.00 0.48 0.00 84 950.5
20260506091412 10 93 3.2 6.4 0.00 0.48 0.00 83 950.5
20260506091314 10 93 3.2 6.4 0.00 0.48 0.00 83 950.5
20260506090912 10 97 1.6 6.4 0.00 0.48 0.00 82 950.5
20260506090815 10 97 3.2 6.4 0.00 0.48 0.00 82 950.6
20260506090409 10 90 3.2 4.8 0.00 0.48 0.00 82 950.6
20260506090315 10 83 3.2 4.8 0.00 0.51 0.00 83 950.6
20260506085903 10 120 1.6 4.8 0.00 0.51 0.00 82 950.5
20260506085814 10 120 1.6 4.8 0.00 0.53 0.00 82 950.5
20260506085402 10 90 1.6 4.8 0.00 0.58 0.00 84 950.4
20260506085314 10 85 1.6 4.8 0.00 0.58 0.00 84 950.4
20260506084902 10 109 1.6 3.2 0.00 0.58 0.00 84 950.5
20260506084813 10 121 0.0 1.6 0.00 0.61 0.00 84 950.5
20260506084402 10 330 0.0 1.6 0.00 0.61 0.00 85 950.4
20260506084314 10 330 0.0 1.6 0.00 0.64 0.00 84 950.4
20260506084022 10 330 0.0 1.6 0.00 0.66 0.00 85 950.4
20260506083402 10 330 0.0 3.2 0.00 0.66 0.00 85 950.4
20260506083314 10 330 0.0 3.2 0.00 0.66 0.00 85 950.4
20260506082903 10 330 1.6 3.2 0.00 0.66 0.00 85 950.4
20260506082814 10 330 1.6 3.2 0.00 0.66 0.00 85 950.4
20260506082400 10 248 1.6 9.7 0.00 0.66 0.00 86 950.5
20260506082314 10 248 1.6 9.7 0.00 0.66 0.00 87 950.5
20260506081853 10 323 3.2 9.7 0.00 0.66 0.00 86 950.4
20260506081813 10 323 4.8 9.7 0.00 0.66 0.00 87 950.4
20260506081345 10 266 0.0 3.2 0.00 0.66 0.00 88 950.3
20260506081313 10 265 1.6 3.2 0.00 0.66 0.00 88 950.3
20260506080845 9 265 0.0 1.6 0.00 0.66 0.00 90 950.3
20260506080813 9 265 0.0 1.6 0.00 0.66 0.00 90 950.3
20260506080342 9 265 0.0 1.6 0.00 0.66 0.00 89 950.3
20260506080313 9 265 0.0 1.6 0.00 0.66 0.00 90 950.3
20260506073521 8 265 1.6 3.2 0.00 0.66 0.00 92 950.4
20260506072812 8 265 1.6 3.2 0.00 0.66 0.00 92 950.4
20260506072520 8 265 1.6 3.2 0.00 0.66 0.00 92 950.3
20260506071812 8 265 0.0 1.6 0.00 0.66 0.00 93 950.3
20260506071312 8 266 0.0 1.6 0.00 0.66 0.00 93 950.3
20260506070812 8 266 0.0 1.6 0.00 0.66 0.00 94 950.3
20260506070311 8 268 0.0 4.8 0.00 0.66 0.00 95 950.3
20260506062311 7 128 0.0 1.6 0.00 0.66 0.00 95 950.2
20260506061811 7 128 0.0 0.0 0.00 0.66 0.00 94 950.1
20260506061310 7 128 0.0 0.0 0.00 0.66 0.00 94 950.1
20260506060811 7 128 0.0 0.0 0.00 0.66 0.00 94 950.1
20260506060519 7 128 0.0 1.6 0.00 0.66 0.00 94 950.1
20260506051309 7 128 0.0 3.2 0.00 0.66 0.00 93 949.7
20260506051017 7 151 0.0 1.6 0.00 0.66 0.00 94 949.7
20260506050309 7 151 1.6 1.6 0.00 0.66 0.00 94 949.7
20260506044809 7 155 0.0 1.6 0.00 0.66 0.00 95 949.7
20260506044309 7 157 0.0 0.0 0.00 0.66 0.00 95 949.6
20260506043809 7 157 0.0 0.0 0.00 0.66 0.00 95 949.7
20260506043309 6 157 0.0 1.6 0.00 0.66 0.00 95 949.6
20260506042808 6 86 0.0 3.2 0.00 0.66 0.00 95 949.6
20260506042308 6 86 0.0 3.2 0.00 0.66 0.00 95 949.6
20260506041808 6 89 1.6 3.2 0.00 0.66 0.00 95 949.7
20260506041308 6 166 0.0 0.0 0.00 0.66 0.00 95 949.6
20260506041017 6 166 0.0 0.0 0.00 0.66 0.00 95 949.6
20260506040308 6 166 0.0 0.0 0.00 0.66 0.00 95 949.7
20260506035808 6 166 0.0 0.0 0.00 0.66 0.00 95 949.6
20260506035516 6 166 0.0 0.0 0.00 0.66 0.00 95 949.6
20260506034807 6 166 0.0 0.0 0.00 0.66 0.00 95 949.8
20260506034307 6 206 0.0 0.0 0.00 0.66 0.00 94 949.8
20260506033808 6 206 0.0 1.6 0.00 0.66 0.00 94 949.8
20260506033515 6 207 0.0 1.6 0.00 0.66 0.00 94 949.8
20260506032807 6 207 0.0 1.6 0.00 0.66 0.00 94 949.8
20260506032307 6 151 0.0 0.0 0.00 0.66 0.00 94 949.8
20260506031807 6 151 0.0 0.0 0.00 0.66 0.00 94 949.8
20260506031516 6 151 0.0 0.0 0.00 0.66 0.00 94 949.8
20260506030807 6 149 0.0 0.0 0.00 0.66 0.00 94 949.8
20260506030307 6 149 0.0 0.0 0.00 0.66 0.00 94 949.7
20260506025807 6 149 0.0 1.6 0.00 0.66 0.00 94 949.7
20260506025307 6 151 0.0 1.6 0.00 0.66 0.00 94 949.8
20260506024807 6 149 0.0 1.6 0.00 0.66 0.00 93 949.8
20260506024306 6 188 0.0 0.0 0.00 0.66 0.00 92 949.8
20260506023806 6 188 0.0 0.0 0.00 0.66 0.00 92 949.7
20260506023514 7 188 0.0 0.0 0.00 0.66 0.00 93 949.7
20260506022806 7 188 0.0 0.0 0.00 0.66 0.00 93 949.6
20260506022307 7 188 0.0 0.0 0.00 0.66 0.00 93 949.6
20260506021805 7 124 0.0 0.0 0.00 0.66 0.00 93 949.7
20260506021306 7 124 0.0 0.0 0.00 0.66 0.00 93 949.7
20260506020804 7 124 0.0 0.0 0.00 0.66 0.00 93 949.7
20260506020304 7 124 0.0 0.0 0.00 0.66 0.00 92 949.8
20260506015757 7 124 0.0 0.0 0.00 0.66 0.00 92 949.8
20260506015249 7 124 0.0 0.0 0.00 0.66 0.00 92 949.8
20260506014950 6 124 0.0 0.0 0.00 0.66 0.00 92 949.8
20260506014233 7 124 0.0 0.0 0.00 0.66 0.00 92 949.8
20260506013728 7 124 0.0 1.6 0.00 0.66 0.00 91 949.8
20260506013220 7 124 0.0 1.6 0.00 0.66 0.00 90 949.8
20260506012720 7 124 0.0 0.0 0.00 0.66 0.00 91 949.7
20260506012217 7 124 0.0 0.0 0.00 0.66 0.00 91 949.8
20260506011926 7 124 0.0 0.0 0.00 0.66 0.00 90 949.9
20260506011210 7 124 0.0 0.0 0.00 0.66 0.00 90 950.0
20260506010708 7 124 0.0 1.6 0.00 0.66 0.00 90 950.0
20260506010416 7 124 0.0 4.8 0.00 0.66 0.00 89 950.1
20260506005708 7 124 1.6 4.8 0.00 0.66 0.00 88 950.1
20260506005206 7 110 1.6 6.4 0.00 0.66 0.00 87 950.1
20260506004706 8 100 3.2 6.4 0.00 0.66 0.00 86 950.1
20260506004206 8 116 3.2 6.4 0.00 0.66 0.00 86 950.1
20260506003705 8 124 4.8 6.4 0.00 0.66 0.00 86 950.3
20260506003205 7 131 3.2 6.4 0.00 0.66 0.00 86 950.2
20260506002705 7 144 3.2 6.4 0.00 0.66 0.00 87 950.2
20260506002205 7 135 0.0 6.4 0.00 0.66 0.00 88 950.2
20260506001913 7 114 1.6 6.4 0.00 0.66 0.00 89 950.3
20260506001205 7 141 3.2 4.8 0.00 0.66 0.00 90 950.3
20260506000705 6 110 0.0 1.6 0.00 0.66 0.00 91 950.3
20260506000205 6 110 0.0 1.6 0.00 0.66 0.00 90 950.3
20260505235705 7 110 0.0 1.6 0.00 0.66 0.00 90 950.4
20260505235205 7 110 0.0 1.6 0.00 0.66 0.00 90 950.3
20260505234704 7 110 0.0 1.6 0.00 0.66 0.00 90 950.5
20260505234204 7 110 0.0 0.0 0.00 0.66 0.00 90 950.5
20260505233912 7 110 0.0 1.6 0.00 0.66 0.00 89 950.5
20260505233217 7 110 0.0 1.6 0.00 0.66 0.00 89 950.6
20260505232913 7 110 0.0 1.6 0.00 0.66 0.00 89 950.5
20260505232204 7 110 0.0 0.0 0.00 0.66 0.00 88 950.5
20260505231704 7 110 0.0 0.0 0.00 0.66 0.00 87 950.4
20260505231412 7 110 0.0 1.6 0.00 0.66 0.00 87 950.4
20260505230703 8 110 0.0 3.2 0.00 0.66 0.00 87 950.4
20260505230203 8 110 0.0 4.8 0.00 0.66 0.00 86 950.3
20260505225704 8 121 1.6 4.8 0.00 0.66 0.00 86 950.4
20260505225201 8 123 0.0 0.0 0.00 0.66 0.00 87 950.4
20260505224701 8 123 0.0 1.6 0.00 0.66 0.00 86 950.6
20260505224201 8 123 0.0 1.6 0.00 0.66 0.00 85 950.6
20260505223701 8 123 0.0 1.6 0.00 0.66 0.00 85 950.6
20260505223202 8 123 0.0 9.7 0.00 0.66 0.00 85 950.6
20260505222701 8 121 4.8 9.7 0.00 0.66 0.00 85 950.5
20260505222201 8 103 3.2 11.3 0.00 0.66 0.00 86 950.7
20260505221701 8 103 0.0 11.3 0.00 0.66 0.00 85 950.7
20260505221200 8 100 4.8 9.7 0.00 0.66 0.00 85 950.6
20260505220909 8 124 3.2 9.7 0.00 0.66 0.00 85 950.5
20260505220200 8 92 4.8 9.7 0.00 0.66 0.00 85 950.6
20260505215701 8 159 3.2 14.5 0.00 0.66 0.66 85 950.7
20260505215409 8 102 6.4 14.5 0.00 0.66 0.66 85 950.7
20260505214700 8 124 3.2 8.0 0.00 0.66 0.66 85 950.7
20260505214200 8 125 1.6 8.0 0.00 0.66 0.66 86 950.6
20260505213700 8 109 1.6 6.4 0.00 0.66 0.66 86 950.7
20260505213408 8 94 1.6 4.8 0.00 0.66 0.66 86 950.7
20260505212700 8 137 1.6 6.4 0.00 0.66 0.66 86 950.7
20260505212200 8 147 1.6 6.4 0.00 0.66 0.66 86 950.7
20260505211700 8 131 1.6 4.8 0.00 0.66 0.66 87 950.8
20260505211408 8 138 3.2 4.8 0.00 0.66 0.66 87 950.8
20260505210700 8 133 3.2 4.8 0.00 0.66 0.66 88 950.7
20260505210407 8 134 3.2 4.8 0.00 0.66 0.66 88 950.7
20260505205700 8 103 0.0 3.2 0.00 0.66 0.66 88 950.7
20260505205159 8 103 0.0 0.0 0.00 0.66 0.66 89 950.8
20260505204907 8 103 0.0 0.0 0.00 0.66 0.66 89 950.7
20260505204159 8 103 0.0 0.0 0.00 0.66 0.66 89 950.7
20260505203658 8 103 0.0 0.0 0.00 0.66 0.66 88 950.6
20260505203159 8 103 0.0 0.0 0.00 0.66 0.66 87 950.6
20260505202702 8 103 0.0 0.0 0.00 0.66 0.66 86 950.6
20260505202158 8 103 0.0 0.0 0.00 0.66 0.66 86 950.6
20260505201659 8 103 0.0 4.8 0.00 0.66 0.66 85 950.5
20260505201158 8 103 0.0 6.4 0.00 0.66 0.66 85 950.5
20260505200658 8 99 1.6 6.4 0.00 0.66 0.66 84 950.4
20260505200158 8 99 1.6 11.3 0.00 0.66 0.66 84 950.3
20260505195658 8 113 4.8 11.3 0.00 0.66 0.66 84 950.2
20260505195406 8 97 4.8 9.7 0.00 0.66 0.66 84 950.2
20260505194658 8 124 1.6 6.4 0.00 0.66 0.66 84 950.2
20260505194406 8 135 1.6 4.8 0.00 0.66 0.66 84 950.1
20260505193658 8 166 1.6 6.4 0.00 0.66 0.66 83 950.2
20260505193157 8 145 0.0 6.4 0.00 0.66 0.66 83 950.1
20260505192657 8 183 1.6 6.4 0.00 0.66 0.66 83 950.0
20260505192157 8 131 3.2 4.8 0.00 0.66 0.66 83 950.0
20260505191657 9 131 3.2 6.4 0.00 0.66 0.66 83 950.0
20260505191156 9 121 0.0 11.3 0.00 0.66 0.66 83 950.0
20260505190657 9 104 3.2 11.3 0.00 0.66 0.66 82 949.9
20260505190405 9 111 6.4 16.1 0.00 0.66 0.66 82 949.9
20260505185657 9 113 8.0 16.1 0.00 0.66 0.66 81 950.0
20260505185156 9 104 6.4 14.5 0.00 0.66 0.66 81 949.9
20260505184657 9 113 6.4 9.7 0.00 0.66 0.66 83 949.8
20260505184157 9 100 6.4 8.0 0.00 0.66 0.66 84 949.8
20260505183656 9 107 3.2 6.4 0.00 0.66 0.66 84 949.8
20260505183156 9 106 1.6 4.8 0.00 0.66 0.66 85 949.6
20260505182656 9 145 1.6 6.4 0.00 0.66 0.66 85 949.7
20260505182156 9 106 0.0 8.0 0.00 0.66 0.66 84 949.7
20260505181904 10 96 4.8 9.7 0.00 0.66 0.66 82 949.6
20260505181156 10 120 6.4 11.3 0.00 0.66 0.66 81 949.6
20260505180655 10 113 6.4 16.1 0.00 0.66 0.66 81 949.5
20260505180155 10 113 6.4 17.7 0.00 0.66 0.66 80 949.6
20260505175655 10 103 11.3 24.1 0.00 0.66 0.66 79 949.5
20260505175155 10 104 11.3 24.1 0.00 0.66 0.66 78 949.6
20260505174903 11 93 12.9 20.9 0.00 0.66 0.66 77 949.6
20260505174155 11 118 9.7 19.3 0.00 0.66 0.66 78 949.6
20260505173655 11 97 9.7 17.7 0.00 0.66 0.66 79 949.6
20260505173155 11 114 6.4 16.1 0.00 0.66 0.66 77 949.6
20260505172903 11 104 8.0 16.1 0.00 0.66 0.66 79 949.7
20260505172154 11 104 6.4 16.1 0.00 0.66 0.66 78 949.5
20260505171904 11 87 9.7 16.1 0.00 0.66 0.66 78 949.6
20260505171147 11 117 9.7 16.1 0.00 0.66 0.66 77 949.6
20260505170642 11 90 9.7 17.7 0.00 0.66 0.66 78 949.6
20260505170144 11 128 6.4 17.7 0.00 0.66 0.66 78 949.6
20260505170140 11 93 6.4 17.7 0.00 0.66 0.66 78 949.6
20260505165642 11 94 11.3 17.7 0.00 0.66 0.66 78 949.7
20260505165637 11 104 11.3 17.7 0.00 0.66 0.66 78 949.7
20260505165138 11 94 6.4 11.3 0.00 0.66 0.66 78 949.8
20260505164636 11 106 3.2 9.7 0.00 0.66 0.66 76 949.8